Time,TemperatureF,DewpointF,PressureIn,WindDirection,WindDirectionDegrees,WindSpeedMPH,WindSpeedGustMPH,Humidity,HourlyPrecipIn,Conditions,Clouds,dailyrainin,SolarRadiationWatts/m^2,SoftwareType,DateUTC
2013-06-08 00:00:00,56.0,46.0,29.92,WNW,285,14.0,-999.0,70,-99.99,,,-99.99,0.000000,,2013-06-08 06:00:00,
2013-06-08 00:52:00,56.0,46.0,29.92,WNW,285,14.0,-999.0,70,-99.99,,,-99.99,0.000000,,2013-06-08 06:52:00,
2013-06-08 02:00:00,54.0,45.0,29.95,WNW,295,13.0,-999.0,70,-99.99,,,-99.99,0.000000,,2013-06-08 08:00:00,
2013-06-08 02:53:00,54.0,45.0,29.95,WNW,295,13.0,-999.0,70,-99.99,,,-99.99,0.000000,,2013-06-08 08:53:00,
2013-06-08 03:00:00,53.0,46.0,29.97,NW,305,7.0,-999.0,75,-99.99,,,-99.99,0.000000,,2013-06-08 09:00:00,
2013-06-08 03:53:00,53.0,46.0,29.97,NW,305,7.0,-999.0,75,-99.99,,,-99.99,0.000000,,2013-06-08 09:53:00,
2013-06-08 04:00:00,52.0,45.0,29.97,WNW,289,11.0,-999.0,77,-99.99,,,-99.99,0.010000,,2013-06-08 10:00:00,
2013-06-08 04:53:00,52.0,45.0,29.97,WNW,289,11.0,-999.0,77,-99.99,,,-99.99,0.010000,,2013-06-08 10:53:00,
2013-06-08 05:00:00,49.0,44.0,29.98,WSW,252,6.0,-999.0,83,-99.99,,,-99.99,0.010000,,2013-06-08 11:00:00,
2013-06-08 05:52:00,49.0,44.0,29.98,WSW,252,6.0,-999.0,83,-99.99,,,-99.99,0.010000,,2013-06-08 11:52:00,
2013-06-08 06:00:00,52.0,45.0,30.00,West,264,7.0,-999.0,75,-99.99,,,-99.99,11.370000,,2013-06-08 12:00:00,
2013-06-08 06:52:00,52.0,45.0,30.00,West,264,7.0,-999.0,75,-99.99,,,-99.99,11.370000,,2013-06-08 12:52:00,
2013-06-08 07:00:00,52.0,46.0,30.02,NNW,331,7.0,-999.0,79,-99.99,,,-99.99,73.800003,,2013-06-08 13:00:00,
2013-06-08 07:52:00,52.0,46.0,30.02,NNW,331,7.0,-999.0,79,-99.99,,,-99.99,73.800003,,2013-06-08 13:52:00,
2013-06-08 08:00:00,57.0,48.0,30.03,NNW,332,10.0,-999.0,70,-99.99,,,-99.99,225.300003,,2013-06-08 14:00:00,
2013-06-08 08:52:00,57.0,48.0,30.03,NNW,332,10.0,-999.0,70,-99.99,,,-99.99,225.300003,,2013-06-08 14:52:00,
2013-06-08 09:00:00,59.0,46.0,30.02,NW,323,15.0,-999.0,61,-99.99,,,-99.99,395.299988,,2013-06-08 15:00:00,
2013-06-08 09:53:00,59.0,46.0,30.02,NW,323,15.0,-999.0,61,-99.99,,,-99.99,395.299988,,2013-06-08 15:53:00,
2013-06-08 10:00:00,62.0,46.0,30.02,NW,323,16.0,-999.0,56,-99.99,,,-99.99,605.700012,,2013-06-08 16:00:00,
2013-06-08 10:53:00,62.0,46.0,30.02,NW,323,16.0,-999.0,56,-99.99,,,-99.99,605.700012,,2013-06-08 16:53:00,
2013-06-08 11:00:00,59.0,48.0,30.02,North,358,11.0,-999.0,65,-99.99,,,-99.99,520.599976,,2013-06-08 17:00:00,
2013-06-08 11:52:00,59.0,48.0,30.02,North,358,11.0,-999.0,65,-99.99,,,-99.99,520.599976,,2013-06-08 17:52:00,
2013-06-08 12:00:00,63.0,48.0,30.03,North,7,10.0,-999.0,58,-99.99,,,-99.99,491.200012,,2013-06-08 18:00:00,
2013-06-08 12:52:00,63.0,48.0,30.03,North,7,10.0,-999.0,58,-99.99,,,-99.99,491.200012,,2013-06-08 18:52:00,
2013-06-08 13:00:00,66.0,48.0,30.02,NNW,330,13.0,-999.0,52,-99.99,,,-99.99,734.099976,,2013-06-08 19:00:00,
2013-06-08 13:53:00,66.0,48.0,30.02,NNW,330,13.0,-999.0,52,-99.99,,,-99.99,734.099976,,2013-06-08 19:53:00,
2013-06-08 14:00:00,67.0,38.0,30.02,NNW,342,13.0,-999.0,34,-99.99,,,-99.99,784.099976,,2013-06-08 20:00:00,
2013-06-08 14:52:00,67.0,38.0,30.02,NNW,342,13.0,-999.0,34,-99.99,,,-99.99,784.099976,,2013-06-08 20:52:00,
2013-06-08 15:00:00,68.0,33.0,30.01,NW,323,20.0,-999.0,27,-99.99,,,-99.99,819.000000,,2013-06-08 21:00:00,
2013-06-08 15:53:00,68.0,33.0,30.01,NW,323,20.0,-999.0,27,-99.99,,,-99.99,819.000000,,2013-06-08 21:53:00,
2013-06-08 16:00:00,68.0,41.0,30.00,North,349,16.0,-999.0,37,-99.99,,,-99.99,730.299988,,2013-06-08 22:00:00,
2013-06-08 16:52:00,68.0,41.0,30.00,North,349,16.0,-999.0,37,-99.99,,,-99.99,730.299988,,2013-06-08 22:52:00,
2013-06-08 17:00:00,68.0,44.0,29.99,North,349,16.0,-999.0,43,-99.99,,,-99.99,620.400024,,2013-06-08 23:00:00,
2013-06-08 17:52:00,68.0,44.0,29.99,North,349,16.0,-999.0,43,-99.99,,,-99.99,620.400024,,2013-06-08 23:52:00,
2013-06-08 18:00:00,67.0,43.0,30.01,North,2,12.0,-999.0,41,-99.99,,,-99.99,492.600006,,2013-06-09 00:00:00,
2013-06-08 18:52:00,67.0,43.0,30.01,North,2,12.0,-999.0,41,-99.99,,,-99.99,492.600006,,2013-06-09 00:52:00,
2013-06-08 19:00:00,66.0,44.0,30.01,NNE,25,8.0,-999.0,45,-99.99,,,-99.99,326.600006,,2013-06-09 01:00:00,
2013-06-08 19:52:00,66.0,44.0,30.01,NNE,25,8.0,-999.0,45,-99.99,,,-99.99,326.600006,,2013-06-09 01:52:00,
2013-06-08 20:00:00,64.0,48.0,30.02,ENE,62,5.0,-999.0,57,-99.99,,,-99.99,183.199997,,2013-06-09 02:00:00,
2013-06-08 20:52:00,64.0,48.0,30.02,ENE,62,5.0,-999.0,57,-99.99,,,-99.99,183.199997,,2013-06-09 02:52:00,
2013-06-08 21:00:00,59.0,45.0,30.02,ESE,102,3.0,-999.0,61,-99.99,,,-99.99,31.980000,,2013-06-09 03:00:00,
2013-06-08 21:53:00,59.0,45.0,30.02,ESE,102,3.0,-999.0,61,-99.99,,,-99.99,31.980000,,2013-06-09 03:53:00,
2013-06-08 22:00:00,56.0,46.0,30.02,SSE,168,4.0,-999.0,69,-99.99,,,-99.99,1.900000,,2013-06-09 04:00:00,
2013-06-08 22:53:00,56.0,46.0,30.02,SSE,168,4.0,-999.0,69,-99.99,,,-99.99,1.900000,,2013-06-09 04:53:00,
2013-06-08 23:00:00,50.0,45.0,30.02,SW,219,5.0,-999.0,82,-99.99,,,-99.99,0.000000,,2013-06-09 05:00:00,
2013-06-08 23:52:00,50.0,45.0,30.02,SW,219,5.0,-999.0,82,-99.99,,,-99.99,0.000000,,2013-06-09 05:52:00,